Regional Weather Roundup
Issued by NWS New Orleans/Baton Rouge, LA

Current Version | Previous Version | Text Only | Print | Product List | Glossary On
Versions: 1 2 3 4 5 6 7 8 9 10 11 12 13 14 15 16 17 18 19 20 21 22 23 24 25 26 27 28 29 30 31 32 33 34 35 36 37 38 39 40 41 42 43 44 45 46 47 48 49 50
571
ASUS44 KLIX 191913
RWRLIX
NEW ORLEANS REGIONAL WEATHER ROUNDUP
NATIONAL WEATHER SERVICE NEW ORLEANS LA
200 PM CDT TUE SEP 19 2017

NOTE: "FAIR" INDICATES FEW OR NO CLOUDS BELOW 12,000 FEET WITH NO
      SIGNIFICANT WEATHER AND/OR OBSTRUCTIONS TO VISIBILITY.
      SKY/WX - SKY CONDITION AND SIGNIFICANT WEATHER.
      TMP - AIR TEMPERATURE.     DP    - DEWPOINT TEMPERATURE.
      RH  - RELATIVE HUMIDITY.   PRES  - PRESSURE.
      HI  - HEAT INDEX.          WCI   - WIND CHILL INDEX.

*  THESE STATIONS ARE NOT NWS OR FAA STATIONS AND ARE NOT UNDER
   NWS QUALITY CONTROL.

LAZ038-040-048-061>063-065>067-069-192000-
SOUTHEAST LOUISIANA

CITY           SKY/WX    TMP DP  RH WIND       PRES   REMARKS
N.O. INTL ARPT PTSUNNY   89  74  60 VRB3      29.96F HX  98
N.O. LAKEFRONT MOSUNNY   87  76  69 N7        29.97F HX  97
N.O. DOWNTOWN* CLOUDY    89  74  60 VRB3      29.97F HX  98
RESERVE*         N/A     93  70  47 CALM      29.96F HX  99
SLIDELL        MOSUNNY   90  71  53 MISG      29.95F HX  96
BATON ROUGE    PTSUNNY   87  71  58 CALM      29.95F
BOOTHVILLE     SUNNY     88  74  63 VRB7      29.99F HX  96
BELLE CHASSE   NOT AVBL
BOGALUSA*        N/A     90  71  54 SW5       29.97F HX  96
GALLIANO*      CLEAR     90  70  52 SW9       29.97F HX  95
NEW ROADS*     MOCLDY    90  73  57 CALM      29.96F HX  97
GONZALES*        N/A     90  72  54 SW5       29.95F HX  97
HAMMOND*       MOSUNNY   91  68  46 CALM      29.96F HX  95
HOUMA*         MOSUNNY   90  73  58 SE9       29.97F HX  98
PORT FOURCHON* PTCLDY    86  72  62 S7        29.99F

$$

MSZ070-080>082-192000-
SOUTHERN MISSISSIPPI

CITY           SKY/WX    TMP DP  RH WIND       PRES   REMARKS
MCCOMB         SUNNY     88  71  57 W6        29.97F
GULFPORT       MOSUNNY   87  77  72 S7        29.96F HX  99
BILOXI         SUNNY     87  75  67 SW6       29.97F HX  96
PASCAGOULA     CLOUDY    89  72  56 MISG      29.97F HX  96
STENNIS ARPT*  MOSUNNY   88  75  66 CALM      29.96F HX  97

$$

COASTAL OBSERVATIONS
LAKE AND NEARSHORE STATIONS

STATION/POSITION TIME  TEMP    WIND        PRES    WAVE
                       AIR SEA DIR/SP/G            HT/PER
                 (UTC) (F)     (DEG/KT/KT) (MB)    (FT/S)
PASCAGOULA       1848   85     250/  7/  9 1014.7
WAVELAND YACHT   1848   83 84  170/  8/ 10 1014.8
GRAND ISLE       1848   85 87  170/  5/  9 1015.7
SOUTHWEST PASS   1848   85     230/  3/  4   N/A
NEW CANAL        1848   83 82   30/  5/  6 1014.7
SHELL BEACH      1848   84 86   40/  4/  5 1015.0

OFFSHORE STATIONS

STATION/POSITION TIME  TEMP    WIND        PRES    WAVE
                       AIR SEA DIR/SP/G            HT/PER
                 (UTC) (F)     (DEG/KT/KT) (MB)    (FT/S)
64 S DAUPHIN ISL 1850   83 83  270/  4/  4 1015.4    1

$$





USA.gov is the U.S. government's official web portal to all federal, state and local government web resources and services.